FW3268 Weather Reports


Display with metric or nautical units.
time (UTC)temp
F
wind
direction
speed
MPH
gust
MPH
rain 1hr
in
rain 24hr
in
rain mn
in
humidity
%
barometer
mb
20260509070003 53 231 5.0 7.0 0.00 0.21 0.00 92 1007.1
20260509063000 53 251 4.0 6.0 0.00 0.21 0.00 91 1007.6
20260509061501 53 231 5.0 7.0 0.00 0.21 0.00 91 1007.7
20260509060005 53 241 5.0 7.0 0.00 0.21 0.00 91 1007.9
20260509053000 53 223 6.0 10.0 0.00 0.21 0.00 91 1008.0
20260509051501 53 229 5.0 8.0 0.00 0.21 0.00 92 1007.8
20260509050005 53 223 3.0 4.0 0.00 0.21 0.00 92 1007.9
20260509044502 53 242 3.0 5.0 0.00 0.21 0.00 92 1007.8
20260509043002 53 248 3.0 4.0 0.00 0.21 0.00 92 1008.0
20260509041502 53 234 2.0 4.0 0.00 0.21 0.00 92 1008.0
20260509033002 54 217 3.0 5.0 0.00 0.21 0.21 92 1007.9
20260509031502 54 178 2.0 4.0 0.00 0.21 0.21 92 1007.9
20260509030005 54 243 3.0 5.0 0.00 0.21 0.21 91 1008.1
20260509021502 55 243 5.0 8.0 0.00 0.21 0.21 90 1008.2
20260509020003 55 236 4.0 6.0 0.00 0.21 0.21 90 1008.0
20260509013003 54 238 1.0 3.0 0.00 0.21 0.21 91 1008.1
20260509011501 55 226 3.0 5.0 0.00 0.21 0.21 91 1008.2
20260509004502 54 200 4.0 6.0 0.00 0.21 0.21 91 1008.2
20260509001502 54 198 5.0 7.0 0.00 0.21 0.21 90 1008.2
20260509000005 55 208 5.0 8.0 0.00 0.21 0.21 89 1008.3
20260508233001 55 219 6.0 8.0 0.00 0.21 0.21 89 1008.4
20260508231501 55 233 6.0 9.0 0.00 0.21 0.21 89 1008.5
20260508230007 55 237 8.0 10.0 0.00 0.21 0.21 87 1008.8
20260508224503 55 214 6.0 10.0 0.00 0.21 0.21 89 1008.4
20260508223002 55 216 8.0 11.0 0.01 0.21 0.21 89 1008.4
20260508221501 55 212 7.0 11.0 0.02 0.21 0.21 89 1008.5
20260508220005 55 212 7.0 11.0 0.03 0.21 0.21 89 1008.4
20260508214502 55 199 7.0 10.0 0.05 0.21 0.21 89 1008.2
20260508211501 55 260 7.0 13.0 0.07 0.19 0.19 89 1008.9
20260508210006 56 255 6.0 10.0 0.08 0.18 0.18 88 1009.1
20260508204501 56 274 4.0 7.0 0.07 0.16 0.16 88 1009.3
20260508203002 56 299 5.0 7.0 0.06 0.14 0.14 88 1009.4
20260508201503 56 296 4.0 8.0 0.06 0.12 0.12 86 1009.5
20260508200006 56 254 7.0 12.0 0.05 0.10 0.10 84 1009.6
20260508194502 57 262 10.0 15.0 0.04 0.09 0.09 82 1009.9
20260508193002 58 271 8.0 12.0 0.03 0.08 0.08 80 1009.9
20260508191501 59 245 7.0 10.0 0.01 0.06 0.06 77 1009.7
20260508184502 59 266 9.0 16.0 0.00 0.05 0.05 76 1009.9
20260508181501 63 283 13.0 21.0 0.00 0.05 0.05 64 1009.9
20260508180004 63 255 13.0 18.0 0.00 0.05 0.05 64 1009.9
20260508174501 64 242 12.0 18.0 0.00 0.05 0.05 66 1010.1
20260508173002 63 276 13.0 18.0 0.00 0.05 0.05 67 1010.2
20260508171501 63 265 11.0 16.0 0.00 0.05 0.05 67 1010.3
20260508170004 62 259 11.0 16.0 0.00 0.05 0.05 68 1010.5
20260508164501 62 230 12.0 18.0 0.00 0.05 0.05 68 1011.2
20260508163001 61 264 9.0 14.0 0.00 0.05 0.05 69 1011.3
20260508161501 61 283 9.0 14.0 0.00 0.05 0.05 69 1011.5
20260508160004 60 260 8.0 13.0 0.00 0.05 0.05 69 1011.7
20260508153002 59 260 7.0 12.0 0.00 0.05 0.05 73 1011.8
20260508151500 57 226 7.0 11.0 0.00 0.05 0.05 71 1011.7
20260508150005 56 251 7.0 12.0 0.00 0.05 0.05 74 1012.0
20260508144501 56 243 8.0 12.0 0.00 0.05 0.05 72 1012.2
20260508141502 54 262 8.0 12.0 0.00 0.05 0.05 74 1012.4
20260508140004 53 236 7.0 10.0 0.00 0.05 0.05 75 1012.6
20260508134501 53 246 7.0 10.0 0.00 0.05 0.05 74 1012.5
20260508133001 53 270 7.0 10.0 0.00 0.05 0.05 77 1012.7
20260508131500 52 229 4.0 7.0 0.00 0.05 0.05 79 1012.6
20260508130003 51 232 3.0 5.0 0.00 0.05 0.05 80 1012.6
20260508124500 51 226 3.0 4.0 0.00 0.05 0.05 78 1012.7
20260508123001 50 238 2.0 4.0 0.00 0.05 0.05 79 1012.7
20260508121501 50 221 2.0 3.0 0.00 0.05 0.05 79 1012.5
20260508120003 49 226 1.0 2.0 0.00 0.05 0.05 82 1012.6
20260508114500 49 245 1.0 1.0 0.00 0.05 0.05 84 1012.6
20260508113002 49 252 2.0 3.0 0.00 0.05 0.05 83 1012.6
20260508111500 49 265 2.0 3.0 0.00 0.05 0.05 83 1012.5
20260508110004 49 240 3.0 4.0 0.02 0.05 0.05 80 1012.5
20260508103000 49 269 3.0 5.0 0.03 0.05 0.05 81 1012.4
20260508101500 50 267 5.0 8.0 0.04 0.05 0.05 79 1012.3
20260508100004 49 250 3.0 5.0 0.03 0.03 0.03 79 1012.3
20260508094500 49 263 2.0 4.0 0.03 0.03 0.03 82 1012.4
20260508093001 49 303 3.0 5.0 0.02 0.02 0.02 82 1012.9
20260508091501 49 300 3.0 6.0 0.01 0.01 0.01 81 1013.1
20260508090002 50 285 5.0 8.0 0.00 0.00 0.00 76 1012.9
20260508084459 50 238 5.0 7.0 0.00 0.00 0.00 81 1012.0
20260508083001 50 250 8.0 13.0 0.00 0.00 0.00 80 1012.1
20260508081501 50 246 10.0 14.0 0.00 0.00 0.00 80 1012.1
20260508080002 52 262 12.0 20.0 0.00 0.00 0.00 74 1012.0
20260508074500 51 269 11.0 17.0 0.00 0.00 0.00 77 1012.1
20260508073000 51 264 10.0 14.0 0.00 0.00 0.00 74 1012.5
20260508071501 50 237 7.0 13.0 0.00 0.00 0.00 74 1012.6